Weather WX

World > North America > United States > Oregon

Nyssa, Oregon Regional Weather

Lat: 43.88N, Lon: 117W
Wx Zone: ORZ064
Feedback

Nyssa, OR Regional Weather

Expires:201906242000;;013920
ASUS46 KPQR 241910
RWROR 

OREGON REGIONAL WEATHER ROUNDUP
NATIONAL WEATHER SERVICE PORTLAND OR
1200 PM PDT MON JUN 24 2019

NOTE: "FAIR" INDICATES FEW OR NO CLOUDS BELOW 12,000 FEET WITH
NO SIGNIFICANT WEATHER AND/OR OBSTRUCTIONS TO VISIBILITY.


ORZ029>031-041-044-049-050-061>064-502-503-505>511-242000-
EASTERN OREGON

  
CITY           SKY/WX    TMP DP  RH WIND       PRES   REMARKS
MADRAS         SUNNY     68  36  30 CALM      30.01F                  
REDMOND        SUNNY     67  39  35 E5        29.99F                  
BEND           SUNNY     66  37  34 VRB6G14   29.98F                  
PRINEVILLE     SUNNY     66  34  30 NW8       29.99F                  
KLAMATH FALLS  SUNNY     69  37  30 W9        30.01F                  
LAKEVIEW       HAZE      70  41  35 SE9       30.02F VSB 1/2          
HERMISTON      SUNNY     70  39  32 W10G20    29.95F                  
PENDLETON      SUNNY     68  38  33 W14       29.96F                  
JOHN DAY       SUNNY     65  36  33 NW7       30.00F                  
MEACHAM        SUNNY     59  34  39 VRB3      30.01S                  
LA GRANDE      SUNNY     65  38  36 E12       29.98F                  
BAKER CITY     SUNNY     67  37  33 CALM      29.99F                  
BURNS          SUNNY     67  35  30 VRB6      30.02F                  
ROME             N/A     74  30  19 VRB6      29.97F                  
ONTARIO        SUNNY     73  36  25 S7        29.96F                  
$$
  

SKY/WX - Weather  TMP - Temperature  DP - Dew Point  RH - Relative Humidity
WIND - Wind Direction/Speed PRES - Barometric Pressure VSB - Visibility
WCI - Wind Chill Index E13G22 Wind - East Wind 13 mph/Gusts of 22 mph